Location: Newark
(48.1500°N, 2.9667°W)
Time: 15:01:23
(UTC+00:00)

Transit 2A Rocket - All Passes

Search period start: 27 January 2020 00:00
Search period end: 06 February 2020 00:00
Orbit: 593 x 910 km, 66.7° (Epoch: 27 January)

Date Brightness Start Highest point End Pass type
(mag) Time Alt. Az. Time Alt. Az. Time Alt. Az.
27 Jan - 04:26:41 10° S 04:30:26 30° ESE 04:34:15 10° NE visible
27 Jan - 06:08:53 10° WSW 06:12:53 37° NW 06:16:58 10° NNE visible
27 Jan - 07:55:45 10° NW 07:56:47 11° NNW 07:57:48 10° N daylight
27 Jan - 11:23:21 10° N 11:26:21 16° NNE 11:29:28 10° ENE daylight
27 Jan - 13:04:58 10° NNW 13:09:45 65° NE 13:14:58 10° SE daylight
27 Jan - 14:48:15 10° WNW 14:51:58 21° WSW 14:55:54 10° SSW daylight
28 Jan - 03:45:21 10° SSE 03:48:10 17° ESE 03:51:00 10° ENE visible
28 Jan - 05:25:58 10° SW 05:30:12 60° NW 05:34:34 10° NNE visible
28 Jan - 07:11:23 10° WNW 07:13:43 14° NNW 07:16:06 10° N visible
28 Jan - 10:41:21 10° N 10:43:19 12° NNE 10:45:21 10° NE daylight
28 Jan - 12:22:33 10° NNW 12:27:06 42° NE 12:32:01 10° ESE daylight
28 Jan - 14:05:10 10° NW 14:09:37 35° WSW 14:14:25 10° S daylight
29 Jan - 04:43:22 10° SSW 04:47:39 79° ESE 04:52:02 10° NE visible
29 Jan - 06:27:36 10° W 06:30:46 19° NW 06:34:00 10° NNE visible
29 Jan - 11:40:13 10° NNW 11:44:21 28° NE 11:48:47 10° ESE daylight
29 Jan - 13:22:24 10° NW 13:27:11 58° WSW 13:32:24 10° SSE daylight
30 Jan - 04:01:08 10° S 04:05:12 44° ESE 04:09:21 10° NE visible
30 Jan - 05:44:11 10° WSW 05:47:54 28° NW 05:51:44 10° NNE visible
30 Jan - 10:57:58 10° NNW 11:01:30 20° NE 11:05:14 10° E daylight
30 Jan - 12:39:48 10° NW 12:44:40 88° NE 12:50:00 10° SE daylight
30 Jan - 14:23:48 10° WNW 14:26:42 15° WSW 14:29:43 10° SW daylight
31 Jan - 03:19:21 10° SSE 03:22:52 25° ESE 03:26:25 10° ENE visible
31 Jan - 05:01:03 10° WSW 05:05:09 43° NW 05:09:24 10° NNE visible
31 Jan - 06:47:18 10° NW 06:48:56 12° NNW 06:50:36 10° N visible
31 Jan - 10:15:49 10° N 10:18:33 15° NNE 10:21:23 10° ENE daylight
31 Jan - 11:57:19 10° NNW 12:02:05 56° NE 12:07:16 10° SE daylight
31 Jan - 13:40:20 10° WNW 13:44:25 26° WSW 13:48:45 10° SSW daylight
01 Feb - 02:38:22 10° SE 02:40:37 14° ESE 02:42:54 10° ENE visible
01 Feb - 04:18:14 10° SW 04:22:31 73° NW 04:26:56 10° NNE visible
01 Feb - 06:03:14 10° WNW 06:05:54 16° NNW 06:08:39 10° N visible
01 Feb - 09:33:54 10° N 09:35:30 11° NNE 09:37:06 10° NE daylight
01 Feb - 11:14:57 10° NNW 11:19:24 36° NE 11:24:14 10° ESE daylight
01 Feb - 12:57:24 10° NW 13:02:01 42° WSW 13:07:03 10° S daylight
02 Feb - 03:35:46 10° SSW 03:40:00 65° ESE 03:44:22 10° NE visible
02 Feb - 05:19:35 10° W 05:22:59 22° NW 05:26:28 10° NNE visible
02 Feb - 10:32:37 10° NNW 10:36:37 25° NE 10:40:52 10° E daylight
02 Feb - 12:14:41 10° NW 12:19:34 69° WSW 12:24:54 10° SSE daylight
02 Feb - 14:00:13 10° W 14:01:23 11° WSW 14:02:34 10° WSW daylight
03 Feb - 02:53:41 10° S 02:57:36 36° ESE 03:01:37 10° NE visible
03 Feb - 04:36:16 10° WSW 04:40:09 32° NW 04:44:11 10° NNE visible
03 Feb - 06:23:53 10° NNW 06:24:11 10° NNW 06:24:30 10° NNW visible
03 Feb - 09:50:24 10° N 09:53:44 18° NE 09:57:14 10° ENE daylight
03 Feb - 11:32:08 10° NNW 11:37:02 76° NE 11:42:23 10° SE daylight
03 Feb - 13:15:42 10° WNW 13:19:09 19° WSW 13:22:48 10° SSW daylight
04 Feb - 02:12:07 10° SSE 02:15:18 20° ESE 02:18:31 10° ENE night (unlit)
04 Feb - 03:53:15 10° SW 03:57:26 51° NW 04:01:48 10° NNE visible
04 Feb - 05:39:01 10° NW 05:41:06 13° NNW 05:43:14 10° N visible
04 Feb - 09:08:17 10° N 09:10:44 14° NNE 09:13:16 10° ENE daylight
04 Feb - 10:49:41 10° NNW 10:54:24 48° NE 10:59:32 10° ESE daylight
04 Feb - 12:32:29 10° NW 12:36:51 30° WSW 12:41:31 10° S daylight
05 Feb - 01:31:44 10° SE 01:33:06 11° ESE 01:34:28 10° E night (unlit)
05 Feb - 03:10:34 10° SW 03:14:51 88° WNW 03:19:18 10° NE visible
05 Feb - 04:55:08 10° WNW 04:58:06 18° NNW 05:01:10 10° N visible
05 Feb - 08:26:33 10° N 08:27:39 11° NNE 08:28:47 10° NE daylight
05 Feb - 10:07:20 10° NNW 10:11:41 32° NE 10:16:23 10° ESE daylight
05 Feb - 11:49:39 10° NW 11:54:26 50° WSW 11:59:39 10° SSE daylight
